Weather History for KYNG - June, 2013

Change the Weather History Date:

Thursday, June 6, 2013

  Actual Average Record
Temperature  
Mean Temperature 61 °F 64 °F  
Max Temperature 68 °F 75 °F 91 °F (2008)
Min Temperature 54 °F 53 °F 36 °F (1945)
Degree Days  
Heating Degree Days 4 4  
Month to date heating degree days 29 25  
Since 1 June heating degree days 29 25  
Since 1 July heating degree days 6129 6305  
Cooling Degree Days 0 2  
Month to date cooling degree days 14 12  
Year to date cooling degree days 102 51  
Since 1 June cooling degree days 14 12  
Growing Degree Days 12 (Base 50)    
Moisture  
Dew Point 60 °F    
Average Humidity 86    
Maximum Humidity 100    
Minimum Humidity 72    
Precipitation  
Precipitation 0.87 in 0.12 in 0.87 in (2013)
Month to date precipitation 1.77 0.77  
Year to date precipitation 13.54 15.56  
Snow  
Snow 0.00 in 0.00 in - ()
Month to date snowfall 0.0 0.0  
Since 1 June snowfall 0.0 0.0  
Since 1 July snowfall 80.9 62.7  
Snow Depth 0.00 in    
Sea Level Pressure  
Sea Level Pressure 29.84 in    
Wind  
Wind Speed 7 mph (SW)    
Max Wind Speed 13 mph    
Max Gust Speed 16 mph    
Visibility 4 miles    
Events Fog , Rain , Thunderstorm    
T = Trace of Precipitation, MM = Missing Value Source: NWS Daily Summary

Daily Weather History Graph

Daily Weather History Graph

Search for Another Location

Airport or City:

Trip Planner

Search our weather history database for the weather conditions in past years. The results will help you decide how hot, cold, wet, or windy it might be!

Date:

Astronomy

Jun. 06, 2013 Rise Set
Actual Time 5:50 AM EDT 8:53 PM EDT
Civil Twilight 5:16 AM EDT 9:26 PM EDT
Nautical Twilight 4:34 AM EDT 10:09 PM EDT
Astronomical Twilight 3:44 AM EDT 10:59 PM EDT
Moon 4:31 AM EDT (6/6) 7:12 PM EDT (6/6)
Length of Visible Light 16h 09m
Length of Day
15h 02m
Waning Crescent, 4% of the Moon is Illuminated
Jun 6
Waning Crescent
Jun 8
New
Jun 16
First Quarter
Jun 23
Full
Jun 30
Last Quarter

Hourly Weather History & Observations

Time (EDT) Temp. Dew Point Humidity Pressure Visibility Wind Dir Wind Speed Gust Speed Precip Events Conditions
12:51 AM 59.0 °F 50.0 °F 72% 29.93 in 10.0 mi Calm Calm - N/A   Overcast
1:51 AM 59.0 °F 52.0 °F 78% 29.91 in 10.0 mi Calm Calm - N/A   Overcast
2:16 AM 60.8 °F 53.6 °F 77% 29.92 in 10.0 mi SE 5.8 mph - N/A Thunderstorm Thunderstorm
2:51 AM 63.0 °F 59.0 °F 87% 29.91 in 3.0 mi SSW 9.2 mph 16.1 mph 0.08 in Rain , Thunderstorm Heavy Thunderstorms and Rain
3:49 AM 62.6 °F 60.8 °F 94% 29.91 in 10.0 mi Calm Calm - 0.08 in Rain Light Rain
3:51 AM 62.1 °F 60.1 °F 93% 29.89 in 10.0 mi South 4.6 mph - 0.08 in Rain Light Rain
4:51 AM 62.1 °F 61.0 °F 96% 29.88 in 4.0 mi East 5.8 mph - 0.01 in Rain Light Rain
5:51 AM 63.0 °F 61.0 °F 93% 29.88 in 4.0 mi East 4.6 mph - 0.01 in Rain Light Rain
5:54 AM 62.6 °F 60.8 °F 94% 29.90 in 3.0 mi East 3.5 mph - 0.00 in Rain Light Rain
6:04 AM 62.6 °F 62.6 °F 100% 29.90 in 2.5 mi East 4.6 mph - 0.00 in   Overcast
6:51 AM 63.0 °F 62.1 °F 97% 29.87 in 2.5 mi ESE 5.8 mph - 0.02 in Rain Light Rain
7:51 AM 64.0 °F 63.0 °F 96% 29.85 in 2.0 mi ESE 10.4 mph - 0.07 in Rain Heavy Rain
7:56 AM 64.4 °F 62.6 °F 94% 29.86 in 1.2 mi ESE 9.2 mph - 0.05 in Rain Heavy Rain
8:51 AM 64.0 °F 63.0 °F 96% 29.84 in 1.0 mi SSE 9.2 mph - 0.21 in Rain Rain
9:38 AM 64.4 °F 62.6 °F 94% 29.84 in 2.0 mi SSE 6.9 mph - 0.08 in Rain Rain
9:51 AM 64.9 °F 63.0 °F 93% 29.83 in 2.0 mi SSE 6.9 mph - 0.10 in Rain Rain
10:51 AM 64.9 °F 63.0 °F 93% 29.83 in 2.0 mi South 9.2 mph - 0.05 in Rain Light Rain
11:51 AM 64.9 °F 64.0 °F 97% 29.83 in 2.5 mi South 6.9 mph - 0.02 in   Overcast
12:34 PM 66.2 °F 64.4 °F 94% 29.83 in 4.0 mi South 6.9 mph - N/A   Overcast
12:51 PM 66.9 °F 64.0 °F 90% 29.82 in 4.0 mi South 5.8 mph - N/A   Overcast
1:51 PM 66.9 °F 64.0 °F 90% 29.80 in 3.0 mi SSE 9.2 mph - 0.00 in Rain Light Rain
2:09 PM 66.2 °F 64.4 °F 94% 29.81 in 1.5 mi West 6.9 mph - 0.03 in Rain Rain
2:51 PM 66.0 °F 64.0 °F 93% 29.79 in 1.5 mi WNW 6.9 mph - 0.16 in Rain Rain
3:22 PM 66.2 °F 64.4 °F 94% 29.81 in 6.0 mi WNW 6.9 mph - 0.00 in Rain Light Rain
3:51 PM 64.9 °F 63.0 °F 93% 29.79 in 6.0 mi WNW 6.9 mph - 0.01 in Rain Light Rain
4:16 PM 64.4 °F 62.6 °F 94% 29.80 in 5.0 mi WNW 6.9 mph - 0.03 in Rain Light Rain
4:51 PM 66.0 °F 64.0 °F 93% 29.79 in 10.0 mi NNW 10.4 mph - 0.04 in Rain Light Rain
5:51 PM 64.0 °F 62.1 °F 93% 29.80 in 10.0 mi NNW 6.9 mph - 0.01 in Rain Light Rain
6:51 PM 62.1 °F 60.1 °F 93% 29.79 in 2.5 mi NNW 3.5 mph - 0.00 in Rain Light Rain
7:29 PM 60.8 °F 60.8 °F 100% 29.80 in 0.8 mi WNW 4.6 mph - 0.00 in Rain Light Rain
7:51 PM 60.1 °F 59.0 °F 96% 29.80 in 0.5 mi NW 4.6 mph - 0.00 in Fog , Rain Light Rain
8:35 PM 59.0 °F 57.2 °F 94% 29.82 in 0.2 mi WNW 6.9 mph - 0.00 in Fog Fog
8:51 PM 57.9 °F 57.0 °F 97% 29.82 in 0.2 mi NW 8.1 mph - 0.00 in Fog Fog
9:51 PM 57.9 °F 57.0 °F 97% 29.83 in 0.2 mi NW 8.1 mph - N/A Fog Fog
10:51 PM 55.9 °F 55.9 °F 100% 29.85 in 0.2 mi NNW 9.2 mph - N/A Fog Fog
11:51 PM 55.0 °F 54.0 °F 96% 29.84 in 0.2 mi NNW 8.1 mph - N/A Fog Fog